QPF
0.00 0.00 0.00 0.00 0.00 0.00 0.00 0.00 0.00 0.00 0.00 0.00 0.00 0.00 0.00 0.00 0.00 0.00 0.00 0.00 0.00 0.00 0.00 0.00 0.00 0.00 0.00 0.00 0.00 0.00 0.00 0.00 0.00 0.00 0.00 0.00 0.00 0.00 0.00 0.00 0.00 0.00 0.00 0.00 0.00 0.00 0.00 0.00 0.00
0.00 0.00 0.00 0.00 0.00 0.00 0.00 0.00 0.00 0.00 0.00 0.00 0.00 0.00 0.00 0.00 0.00 0.00 0.00 0.00 0.00 0.00 0.00 0.00 0.00 0.00 0.00 0.00 0.00 0.00 0.00 0.00 0.00 0.00 0.00 0.00 0.00 0.00 0.00 0.00 0.00 0.00 0.00 0.00 0.00 0.00 0.00 0.00 0.00
0.00 0.00 0.00 0.00 0.00 0.00 0.00 0.00 0.00 0.00 0.00 0.00 0.00 0.00 0.00 0.00 0.00 0.00 0.00 0.00 0.00 0.00 0.00 0.00 0.00 0.00 0.00 0.00 0.00 0.00 0.00 0.00 0.00 0.00 0.00 0.00 0.00 0.00 0.00 0.00 0.00 0.00 0.00 0.00 0.00 0.00 0.00 0.00 0.00
0.00 0.00 0.00 0.00 0.00 0.00 0.00 0.00 0.00 0.00 0.00 0.00 0.00 0.00 0.00 0.00 0.00 0.00 0.00 0.00 0.00 0.00 0.00 0.00 0.00 0.00 0.00 0.00 0.00 0.00 0.00 0.00 0.00 0.00 0.00 0.00 0.00 0.00 0.00 0.00 0.00 0.00 0.00 0.00 0.00 0.00 0.00 0.00 0.00
0.00 0.00 0.00 0.00 0.00 0.00 0.00 0.00 0.00 0.00 0.00 0.00 0.00 0.00 0.00 0.00 0.00 0.00 0.00 0.00 0.00 0.00 0.00 0.00 0.00 0.00 0.00 0.00 0.00 0.00 0.00 0.00 0.00 0.00 0.00 0.00 0.00 0.00 0.00 0.00 0.00 0.00 0.00 0.00 0.00 0.00 0.00 0.00 0.00
0.00 0.00 0.00 0.00 0.00 0.00 0.00 0.00 0.00 0.00 0.00 0.00 0.00 0.00 0.00 0.00 0.00 0.00 0.00 0.00 0.00 0.00 0.00 0.00 0.00 0.00 0.00 0.00 0.00 0.00 0.00 0.00 0.00 0.00 0.00 0.00 0.00 0.00 0.00 0.00 0.00 0.00 0.00 0.00 0.00 0.00 0.00 0.00 0.00
0.00 0.00 0.00 0.00 0.00 0.00 0.00 0.00 0.00 0.00 0.00 0.00 0.00 0.00 0.00 0.00 0.00 0.00 0.00 0.00 0.00 0.00 0.00 0.00 0.00 0.00 0.00 0.00 0.00 0.00 0.00 0.00 0.00 0.00 0.00 0.00 0.00 0.00 0.00 0.00 0.00 0.00 0.00 0.00 0.00 0.00 0.00 0.00 0.00
0.00 0.00 0.00 0.00 0.00 0.00 0.00 0.00 0.00 0.00 0.00 0.00 0.00 0.00 0.00 0.00 0.00 0.00 0.00 0.00 0.00 0.00 0.00 0.00 0.00 0.00 0.00 0.00 0.00 0.00 0.00 0.00 0.00 0.00 0.00 0.00 0.00 0.00 0.00 0.00 0.00 0.00 0.00 0.00 0.00 0.00 0.00 0.00 0.00
0.00 0.00 0.00 0.00 0.00 0.00 0.00 0.00 0.00 0.00 0.00 0.00 0.00 0.00 0.00 0.00 0.00 0.00 0.00 0.00 0.00 0.00 0.00 0.00 0.00 0.00 0.00 0.00 0.00 0.00 0.00 0.00 0.00 0.00 0.00 0.00 0.00 0.00 0.00 0.00 0.00 0.00 0.00 0.00 0.00 0.00 0.00 0.00 0.00
0.00 0.00 0.00 0.00 0.00 0.00 0.00 0.00 0.00 0.00 0.00 0.00 0.00 0.00 0.01 0.04 0.02 0.00 0.00 0.00 0.00 0.00 0.00 0.00 0.00 0.00 0.00 0.00 0.00 0.00 0.00 0.00 0.00 0.00 0.00 0.00 0.00 0.00 0.00 0.00 0.00 0.00 0.00 0.00 0.00 0.00 0.00 0.00 0.00
0.00 0.00 0.00 0.00 0.00 0.00 0.00 0.00 0.00 0.00 0.00 0.00 0.00 0.00 0.03 0.08 0.13 0.02 0.00 0.00 0.00 0.00 0.00 0.00 0.00 0.00 0.00 0.00 0.00 0.00 0.00 0.00 0.00 0.00 0.00 0.00 0.00 0.00 0.00 0.00 0.00 0.00 0.00 0.00 0.00 0.00 0.00 0.00 0.00
0.00 0.00 0.00 0.00 0.00 0.00 0.00 0.00 0.00 0.00 0.00 0.00 0.00 0.00 0.00 0.06 0.11 0.13 0.03 0.00 0.00 0.00 0.00 0.00 0.00 0.00 0.00 0.00 0.00 0.00 0.00 0.00 0.00 0.00 0.00 0.00 0.00 0.00 0.00 0.00 0.00 0.00 0.00 0.00 0.00 0.00 0.00 0.00 0.00
0.00 0.00 0.00 0.00 0.00 0.00 0.00 0.00 0.00 0.00 0.00 0.00 0.00 0.00 0.00 0.00 0.04 0.06 0.14 0.06 0.00 0.00 0.00 0.00 0.00 0.00 0.00 0.00 0.00 0.00 0.00 0.00 0.00 0.00 0.00 0.00 0.00 0.00 0.00 0.00 0.00 0.00 0.00 0.00 0.00 0.00 0.00 0.00 0.00
0.00 0.00 0.00 0.00 0.00 0.00 0.00 0.00 0.00 0.00 0.00 0.00 0.00 0.00 0.00 0.00 0.00 0.01 0.07 0.18 0.02 0.00 0.00 0.00 0.00 0.00 0.00 0.00 0.00 0.00 0.00 0.00 0.00 0.00 0.00 0.00 0.00 0.00 0.00 0.00 0.00 0.00 0.00 0.00 0.00 0.00 0.00 0.00 0.00
0.00 0.00 0.00 0.00 0.00 0.00 0.00 0.00 0.00 0.00 0.00 0.00 0.00 0.00 0.00 0.00 0.00 0.00 0.00 0.01 0.09 0.11 0.08 0.12 0.04 0.01 0.00 0.00 0.00 0.00 0.00 0.00 0.00 0.00 0.00 0.00 0.00 0.00 0.00 0.00 0.00 0.00 0.00 0.00 0.00 0.00 0.00 0.00 0.00
0.00 0.00 0.00 0.00 0.00 0.00 0.00 0.00 0.00 0.00 0.00 0.00 0.00 0.00 0.00 0.00 0.00 0.00 0.00 0.00 0.02 0.09 0.10 0.19 0.20 0.12 0.04 0.01 0.00 0.00 0.00 0.00 0.00 0.00 0.00 0.00 0.00 0.00 0.00 0.00 0.00 0.00 0.00 0.00 0.00 0.00 0.00 0.00 0.00
0.00 0.00 0.00 0.00 0.00 0.00 0.00 0.00 0.00 0.00 0.00 0.00 0.00 0.00 0.00 0.00 0.00 0.00 0.00 0.00 0.00 0.03 0.05 0.09 0.08 0.13 0.07 0.05 0.00 0.00 0.00 0.00 0.00 0.00 0.00 0.00 0.00 0.00 0.00 0.00 0.00 0.00 0.00 0.00 0.00 0.00 0.00 0.00 0.02
0.00 0.00 0.00 0.00 0.00 0.00 0.00 0.00 0.00 0.00 0.00 0.00 0.00 0.00 0.00 0.00 0.00 0.00 0.00 0.00 0.00 0.01 0.02 0.04 0.07 0.06 0.08 0.14 0.05 0.01 0.00 0.00 0.00 0.00 0.00 0.00 0.00 0.00 0.00 0.00 0.00 0.00 0.00 0.00 0.00 0.00 0.00 0.00 0.00
0.00 0.00 0.00 0.00 0.00 0.00 0.00 0.00 0.00 0.00 0.00 0.00 0.00 0.00 0.00 0.00 0.00 0.00 0.00 0.00 0.00 0.04 0.05 0.01 0.00 0.04 0.09 0.13 0.03 0.01 0.00 0.00 0.00 0.00 0.00 0.00 0.00 0.00 0.00 0.00 0.00 0.00 0.00 0.00 0.00 0.00 0.00 0.00 0.00
0.00 0.00 0.00 0.00 0.00 0.00 0.00 0.00 0.00 0.00 0.00 0.00 0.00 0.00 0.00 0.00 0.00 0.00 0.00 0.00 0.00 0.02 0.05 0.06 0.02 0.07 0.21 0.14 0.09 0.05 0.01 0.00 0.00 0.00 0.00 0.00 0.00 0.00 0.00 0.00 0.00 0.00 0.00 0.00 0.00 0.00 0.00 0.00 0.00
0.00 0.00 0.00 0.00 0.00 0.00 0.00 0.00 0.00 0.00 0.00 0.00 0.00 0.00 0.00 0.00 0.00 0.00 0.00 0.00 0.00 0.02 0.01 0.03 0.12 0.15 0.15 0.13 0.21 0.21 0.05 0.00 0.00 0.00 0.00 0.00 0.00 0.00 0.00 0.00 0.00 0.00 0.00 0.00 0.00 0.00 0.00 0.00 0.00
0.00 0.00 0.00 0.00 0.00 0.00 0.00 0.00 0.00 0.00 0.00 0.00 0.00 0.00 0.00 0.00 0.00 0.00 0.00 0.00 0.00 0.00 0.01 0.01 0.07 0.16 0.09 0.08 0.09 0.18 0.12 0.05 0.01 0.00 0.00 0.00 0.00 0.00 0.00 0.00 0.00 0.00 0.00 0.00 0.00 0.00 0.00 0.00 0.00
0.00 0.00 0.00 0.00 0.00 0.00 0.00 0.00 0.00 0.00 0.00 0.00 0.00 0.00 0.00 0.00 0.00 0.00 0.00 0.00 0.00 0.00 0.01 0.02 0.02 0.03 0.09 0.07 0.14 0.20 0.22 0.28 0.13 0.06 0.01 0.00 0.00 0.00 0.00 0.00 0.00 0.00 0.00 0.00 0.00 0.00 0.00 0.00 0.00
0.00 0.00 0.00 0.00 0.00 0.00 0.00 0.00 0.00 0.00 0.00 0.00 0.00 0.00 0.00 0.00 0.00 0.00 0.00 0.00 0.00 0.00 0.00 0.01 0.01 0.01 0.03 0.11 0.22 0.22 0.22 0.18 0.11 0.09 0.09 0.03 0.00 0.00 0.00 0.00 0.00 0.00 0.00 0.00 0.00 0.00 0.00 0.00 0.00
0.01 0.00 0.00 0.00 0.00 0.00 0.00 0.00 0.00 0.00 0.00 0.00 0.00 0.00 0.00 0.00 0.00 0.00 0.00 0.00 0.00 0.00 0.00 0.00 0.00 0.02 0.03 0.06 0.12 0.22 0.16 0.13 0.18 0.19 0.14 0.09 0.05 0.04 0.01 0.00 0.00 0.00 0.00 0.00 0.00 0.00 0.00 0.00 0.00
0.00 0.00 0.00 0.00 0.00 0.00 0.00 0.00 0.00 0.00 0.00 0.00 0.00 0.00 0.00 0.00 0.00 0.00 0.00 0.00 0.00 0.00 0.00 0.00 0.01 0.03 0.03 0.06 0.05 0.18 0.14 0.05 0.13 0.18 0.16 0.14 0.09 0.04 0.00 0.00 0.00 0.00 0.00 0.00 0.00 0.00 0.00 0.00 0.00
0.00 0.00 0.00 0.00 0.00 0.00 0.00 0.00 0.00 0.00 0.00 0.00 0.00 0.00 0.00 0.00 0.00 0.00 0.00 0.00 0.00 0.00 0.00 0.00 0.01 0.05 0.03 0.04 0.04 0.10 0.12 0.08 0.08 0.10 0.09 0.07 0.08 0.04 0.00 0.00 0.00 0.00 0.00 0.00 0.00 0.00 0.00 0.00 0.00
0.00 0.00 0.00 0.00 0.01 0.00 0.00 0.00 0.00 0.00 0.00 0.00 0.00 0.00 0.00 0.00 0.00 0.00 0.00 0.00 0.00 0.02 0.01 0.00 0.01 0.02 0.02 0.06 0.11 0.13 0.13 0.05 0.03 0.01 0.02 0.04 0.05 0.01 0.00 0.00 0.00 0.00 0.00 0.00 0.00 0.00 0.00 0.00 0.00
0.00 0.00 0.00 0.01 0.00 0.00 0.00 0.00 0.01 0.01 0.00 0.00 0.00 0.00 0.00 0.00 0.00 0.00 0.00 0.00 0.01 0.04 0.02 0.04 0.03 0.05 0.07 0.10 0.13 0.13 0.10 0.03 0.01 0.04 0.02 0.02 0.02 0.00 0.00 0.00 0.00 0.00 0.00 0.00 0.00 0.00 0.00 0.00 0.00
0.00 0.00 0.00 0.01 0.01 0.01 0.00 0.00 0.00 0.02 0.03 0.00 0.01 0.00 0.00 0.00 0.00 0.00 0.00 0.00 0.01 0.02 0.05 0.10 0.09 0.07 0.09 0.13 0.14 0.11 0.09 0.07 0.13 0.09 0.07 0.03 0.00 0.00 0.00 0.00 0.00 0.00 0.00 0.00 0.00 0.00 0.00 0.00 0.00
MSLP
1010.57 1010.22 1010.38 1010.47 1011.77 1011.78 1010.24 1008.30 1006.35 1004.61 1003.53 1001.84 1002.10 1002.71 1002.20 1001.24 1002.60 1003.32 1002.43 1003.41 1003.99 1005.53 1006.80 1007.27 1007.23 1007.37 1007.44 1007.87 1008.38 1008.66 1009.03 1009.02 1009.36 1009.53 1009.79 1010.04 1010.44 1010.64 1010.90 1011.05 1011.29 1011.55 1011.82 1011.91 1012.02 1012.19 1012.40 1012.48 1012.54
1010.66 1010.31 1010.67 1011.27 1012.09 1011.86 1009.48 1007.41 1005.89 1004.06 1001.93 1002.10 1001.81 1001.41 1001.50 1000.92 1000.33 1001.13 1001.94 1003.14 1003.71 1005.33 1006.20 1006.96 1006.94 1007.22 1007.34 1007.72 1008.31 1008.79 1009.16 1009.05 1009.34 1009.56 1009.76 1010.06 1010.50 1010.79 1011.05 1011.30 1011.44 1011.65 1011.80 1012.07 1012.21 1012.38 1012.49 1012.54 1012.60
1010.73 1010.61 1011.36 1011.88 1011.90 1011.09 1009.35 1006.65 1005.15 1003.33 1002.17 1002.48 1001.83 1001.41 1001.01 1000.17 1000.18 1000.30 1000.55 1002.55 1003.98 1005.29 1005.61 1006.40 1006.82 1006.94 1007.27 1007.72 1008.36 1009.03 1009.33 1009.16 1009.40 1009.63 1009.83 1010.02 1010.48 1010.90 1011.09 1011.31 1011.39 1011.64 1011.90 1012.12 1012.38 1012.49 1012.53 1012.54 1012.57
1010.81 1011.22 1011.76 1011.73 1011.18 1010.00 1008.29 1006.10 1005.04 1004.06 1001.97 1002.41 1002.19 1001.37 1000.73 999.83 999.51 1000.14 1001.24 1002.65 1003.90 1004.80 1005.48 1006.33 1006.72 1006.73 1006.97 1007.56 1008.17 1008.94 1009.20 1009.34 1009.61 1009.87 1010.07 1010.18 1010.43 1010.83 1011.05 1011.42 1011.68 1011.75 1012.05 1012.16 1012.34 1012.44 1012.50 1012.43 1012.46
1010.92 1011.70 1012.26 1011.78 1010.61 1009.28 1007.96 1006.35 1005.62 1004.89 1003.30 1002.50 1002.42 1001.34 1001.26 1000.64 1000.11 1000.72 1001.47 1002.13 1003.54 1004.79 1005.50 1006.28 1006.73 1006.73 1007.04 1007.35 1007.97 1008.68 1008.93 1009.28 1009.63 1009.87 1010.09 1010.28 1010.56 1010.86 1011.19 1011.41 1011.56 1011.77 1012.11 1012.35 1012.25 1012.32 1012.23 1012.28 1012.41
1011.43 1011.95 1012.45 1011.60 1010.28 1008.87 1007.77 1006.22 1005.79 1005.05 1003.46 1002.99 1002.16 1001.42 1001.39 1001.38 1000.90 1001.50 1001.89 1002.42 1003.17 1003.84 1005.11 1005.89 1006.51 1006.98 1006.92 1007.24 1007.75 1008.39 1008.81 1009.30 1009.68 1009.99 1010.09 1010.36 1010.65 1010.90 1011.24 1011.51 1011.68 1011.81 1011.97 1012.24 1012.18 1012.16 1012.23 1012.30 1012.36
1011.63 1012.21 1011.85 1011.01 1010.08 1008.86 1007.56 1006.10 1005.88 1004.97 1003.91 1003.13 1002.13 1001.12 1001.19 1001.50 1002.12 1001.61 1002.15 1002.95 1003.66 1004.38 1004.95 1005.70 1006.27 1007.02 1007.06 1007.21 1007.48 1008.26 1008.79 1009.30 1009.65 1010.08 1010.20 1010.49 1010.69 1010.89 1011.14 1011.42 1011.68 1011.80 1011.97 1012.09 1012.12 1012.18 1012.20 1012.28 1012.38
1011.28 1011.71 1011.52 1010.78 1010.00 1008.67 1007.23 1006.32 1005.73 1005.11 1003.95 1003.49 1002.59 1002.39 1001.59 1000.74 1001.93 1002.40 1002.36 1003.35 1004.03 1004.72 1005.14 1005.70 1006.24 1006.70 1006.99 1007.39 1007.71 1008.19 1008.77 1009.22 1009.57 1010.00 1010.17 1010.56 1010.75 1010.99 1011.18 1011.41 1011.47 1011.62 1011.80 1012.05 1012.14 1012.16 1012.17 1012.21 1012.29
1010.87 1011.73 1011.57 1010.68 1009.81 1008.61 1007.45 1006.74 1005.51 1004.86 1004.36 1004.18 1003.42 1003.07 1001.58 1000.34 1001.76 1002.68 1002.97 1003.71 1004.41 1005.05 1005.34 1005.71 1006.32 1006.49 1006.96 1007.44 1007.73 1008.29 1008.84 1009.13 1009.48 1009.87 1010.22 1010.48 1010.82 1011.05 1011.22 1011.32 1011.47 1011.52 1011.72 1011.85 1012.03 1012.05 1012.06 1012.09 1012.19
1011.08 1011.57 1011.14 1010.26 1009.54 1008.71 1007.57 1007.07 1005.96 1005.26 1004.41 1004.23 1003.52 1002.88 1002.28 1003.36 1001.60 1002.01 1002.62 1003.36 1004.04 1004.65 1005.14 1005.42 1006.24 1006.64 1007.04 1007.24 1007.62 1007.96 1008.64 1009.20 1009.42 1009.70 1010.18 1010.54 1010.83 1011.20 1011.20 1011.34 1011.47 1011.49 1011.66 1011.75 1011.90 1011.97 1011.97 1011.95 1012.10
1010.65 1010.87 1010.07 1009.38 1008.71 1008.23 1007.53 1006.53 1006.05 1005.45 1004.77 1004.83 1004.41 1003.98 1003.48 1003.79 1004.73 1001.87 1002.26 1001.88 1002.50 1003.74 1004.73 1005.23 1005.74 1006.53 1006.93 1007.33 1007.57 1007.85 1008.33 1008.86 1009.17 1009.45 1009.85 1010.24 1010.71 1011.12 1011.18 1011.38 1011.46 1011.50 1011.55 1011.69 1011.84 1011.99 1011.91 1011.96 1011.99
1010.74 1010.34 1009.95 1009.39 1008.66 1008.30 1007.73 1006.78 1005.42 1005.30 1004.72 1004.64 1004.49 1004.30 1004.06 1003.85 1005.17 1005.10 1001.97 1001.84 1002.50 1003.32 1003.90 1004.61 1005.50 1006.25 1006.98 1007.64 1008.04 1007.88 1008.39 1008.68 1009.05 1009.14 1009.81 1010.10 1010.60 1011.00 1011.01 1011.28 1011.39 1011.45 1011.47 1011.53 1011.74 1012.05 1011.94 1011.86 1012.08
1010.46 1010.38 1009.90 1009.33 1008.86 1008.38 1007.53 1006.81 1005.73 1004.85 1004.74 1004.28 1004.20 1004.20 1004.03 1004.12 1004.41 1004.69 1004.93 1001.31 1001.18 1002.55 1003.53 1004.29 1004.70 1005.74 1006.71 1007.31 1007.86 1007.93 1008.09 1008.47 1008.79 1009.05 1009.30 1009.86 1010.29 1010.59 1010.87 1011.00 1011.11 1011.26 1011.41 1011.56 1011.70 1011.96 1011.95 1011.99 1012.21
1010.80 1010.36 1009.68 1008.96 1008.54 1008.02 1007.60 1006.64 1005.81 1003.90 1004.53 1004.31 1004.10 1004.07 1003.97 1003.58 1003.98 1004.20 1004.03 1003.35 1001.59 1001.43 1002.64 1003.82 1004.65 1005.28 1006.20 1007.11 1007.65 1007.50 1007.85 1007.76 1008.47 1008.78 1009.02 1009.38 1009.84 1010.33 1010.72 1010.83 1010.94 1011.09 1011.20 1011.21 1011.40 1011.75 1011.84 1012.07 1012.05
1011.20 1010.86 1010.07 1009.18 1008.77 1008.18 1007.52 1006.68 1005.77 1004.56 1003.88 1004.13 1003.93 1003.62 1003.94 1003.32 1003.15 1003.13 1003.39 1002.46 1001.35 1002.95 1003.57 1004.32 1005.51 1006.18 1006.00 1006.48 1007.29 1007.57 1008.04 1007.94 1008.76 1008.71 1009.15 1009.34 1009.58 1009.82 1010.45 1010.66 1010.78 1010.76 1010.96 1011.18 1011.35 1011.78 1011.77 1012.24 1012.38
1011.60 1011.33 1010.70 1009.36 1008.83 1008.02 1007.99 1007.13 1005.72 1004.77 1004.45 1003.46 1003.81 1003.29 1003.23 1003.04 1002.68 1002.52 1003.11 1003.07 1002.31 1003.02 1004.14 1004.34 1004.74 1006.69 1006.99 1006.67 1006.60 1006.91 1007.67 1008.08 1008.61 1008.42 1009.01 1009.45 1009.78 1009.85 1010.43 1010.81 1010.83 1010.89 1011.01 1011.14 1011.50 1011.97 1012.37 1012.64 1012.70
1012.16 1012.03 1011.09 1010.05 1009.01 1008.46 1008.17 1007.12 1005.79 1005.00 1004.69 1003.63 1003.65 1003.38 1002.68 1002.53 1002.10 1001.88 1002.36 1002.73 1002.98 1002.91 1003.77 1004.72 1004.54 1005.73 1007.81 1008.00 1007.48 1006.84 1007.13 1007.80 1008.28 1008.59 1008.82 1009.26 1009.77 1009.95 1010.45 1010.98 1011.22 1011.07 1011.28 1011.50 1011.60 1012.02 1012.33 1012.98 1012.96
1012.41 1012.03 1011.09 1010.72 1008.95 1008.89 1008.04 1006.92 1005.86 1004.98 1004.70 1004.00 1003.49 1003.35 1002.83 1002.19 1001.79 1001.45 1001.74 1002.28 1003.27 1003.03 1003.51 1003.90 1004.36 1003.03 1007.63 1008.89 1008.56 1008.01 1008.06 1007.88 1008.17 1008.35 1008.83 1009.17 1009.71 1010.16 1010.89 1011.12 1011.61 1011.66 1011.93 1012.05 1011.95 1012.24 1012.58 1012.99 1013.06
1011.46 1011.53 1010.81 1009.93 1009.28 1008.96 1007.87 1007.09 1005.90 1004.84 1004.50 1004.14 1003.28 1003.36 1003.01 1002.31 1001.27 1001.15 1001.03 1002.23 1002.95 1003.13 1003.50 1004.18 1004.48 1005.25 1006.96 1008.72 1008.16 1008.32 1007.88 1007.76 1007.86 1008.24 1008.56 1009.20 1009.71 1010.53 1011.29 1011.35 1012.01 1012.56 1012.42 1012.50 1012.49 1012.62 1012.94 1013.23 1013.13
1010.74 1010.58 1010.01 1009.28 1008.81 1008.31 1007.54 1006.64 1005.39 1004.90 1004.54 1003.87 1003.26 1002.63 1002.97 1002.28 1001.46 1001.20 1000.96 1002.24 1002.60 1002.88 1003.03 1004.53 1005.12 1005.38 1005.04 1007.26 1007.70 1008.24 1007.45 1007.37 1007.37 1008.24 1008.91 1009.31 1009.89 1010.48 1011.40 1011.69 1012.28 1012.83 1012.73 1012.89 1012.92 1012.81 1013.26 1013.61 1013.56
1009.70 1009.74 1009.41 1009.10 1008.10 1007.75 1007.61 1005.96 1005.47 1004.35 1004.04 1003.64 1003.08 1002.27 1002.07 1002.04 1001.42 1001.10 1000.91 1001.52 1002.31 1002.77 1003.23 1003.58 1004.47 1005.37 1005.61 1005.95 1007.87 1007.67 1007.41 1007.58 1007.95 1008.63 1009.18 1009.79 1010.20 1010.57 1011.29 1011.84 1012.48 1012.92 1012.83 1013.45 1013.45 1013.26 1013.63 1014.05 1014.09
1008.72 1008.70 1008.67 1008.61 1008.61 1008.38 1007.88 1005.84 1004.66 1004.40 1003.84 1003.39 1002.70 1002.30 1001.63 1001.39 1000.97 1000.47 1000.67 1000.81 1001.69 1001.91 1002.48 1003.23 1003.52 1004.18 1004.89 1005.78 1006.45 1007.37 1006.52 1007.39 1008.03 1009.19 1010.24 1010.65 1010.74 1011.20 1011.69 1012.14 1012.82 1013.25 1013.42 1013.80 1013.92 1013.92 1013.89 1014.18 1014.95
1007.79 1008.00 1008.11 1008.26 1008.42 1008.57 1008.21 1007.20 1001.92 1004.08 1003.17 1002.50 1002.27 1001.65 1000.92 1000.52 1000.55 1000.08 1000.18 1000.05 1000.83 1001.10 1001.70 1002.33 1003.02 1003.65 1004.69 1005.81 1005.86 1006.76 1007.32 1007.60 1008.19 1009.64 1010.49 1011.50 1011.71 1011.54 1011.88 1012.66 1013.19 1013.49 1013.93 1014.25 1014.46 1014.64 1014.46 1014.78 1015.39
1007.22 1007.74 1008.04 1008.18 1008.61 1008.30 1007.51 1007.15 1002.01 1003.38 1002.35 1001.57 1001.41 1001.00 1000.51 1000.01 999.65 999.58 999.35 999.54 999.96 1000.30 1000.94 1001.74 1002.27 1002.94 1003.79 1005.38 1005.92 1005.94 1007.46 1006.35 1008.53 1009.47 1010.66 1012.10 1012.57 1012.26 1012.59 1013.07 1013.57 1013.48 1014.39 1014.83 1014.94 1015.11 1015.14 1015.38 1015.85
1007.63 1008.82 1009.12 1009.33 1009.15 1007.23 1006.73 1006.05 1003.10 1002.34 1001.51 1001.20 1000.76 1000.39 1000.10 999.63 999.20 999.20 998.62 999.18 999.28 999.90 1000.36 1000.99 1001.29 1002.46 1003.84 1004.99 1005.95 1005.51 1006.73 1005.62 1008.48 1009.02 1009.91 1011.80 1012.59 1013.00 1013.07 1013.07 1013.87 1014.04 1014.59 1015.06 1015.39 1015.71 1015.52 1015.82 1016.21
1008.79 1009.81 1010.33 1009.33 1008.93 1007.76 1006.48 1004.68 1002.51 1001.43 1000.70 1000.37 1000.07 999.93 999.61 999.23 999.06 998.75 998.32 998.33 998.42 999.19 999.69 1000.04 1000.57 1001.84 1003.39 1004.28 1004.68 1005.52 1006.18 1007.07 1007.62 1008.69 1010.39 1012.27 1013.12 1013.37 1013.33 1013.46 1014.29 1014.27 1014.56 1015.44 1015.82 1016.16 1016.11 1016.23 1016.50
1008.85 1009.61 1009.82 1009.76 1008.87 1008.15 1006.20 1003.87 1002.09 1000.83 1000.71 1000.36 1000.01 999.92 999.28 998.32 998.25 998.11 997.80 997.43 997.74 998.43 998.74 999.26 1000.07 1001.39 1002.48 1003.31 1004.36 1005.65 1006.74 1007.95 1008.52 1009.13 1009.89 1012.12 1013.37 1013.96 1013.70 1014.59 1014.51 1014.56 1015.08 1016.09 1016.58 1016.43 1016.54 1016.76 1016.93
1008.03 1008.29 1009.51 1009.76 1009.02 1007.59 1005.21 1003.91 1002.20 1001.06 1000.86 1000.71 1000.19 999.98 999.28 998.18 997.68 997.54 997.29 997.37 996.54 996.77 997.66 998.35 999.49 1000.92 1002.32 1003.52 1004.04 1005.57 1006.87 1007.83 1008.67 1009.24 1009.71 1011.09 1013.67 1013.79 1014.22 1014.88 1014.77 1015.01 1015.78 1016.67 1016.93 1017.00 1016.98 1016.81 1017.69
1008.06 1008.32 1008.98 1009.46 1009.21 1007.80 1005.73 1003.25 1001.40 1001.18 1000.98 1000.97 1000.66 999.81 998.94 998.11 997.32 997.06 997.11 996.95 996.53 996.67 997.64 998.11 999.40 1000.76 1002.11 1003.12 1004.76 1005.73 1007.47 1008.36 1008.94 1009.75 1011.00 1012.22 1013.68 1014.29 1014.62 1014.95 1015.15 1015.65 1016.32 1017.01 1017.33 1017.11 1017.10 1017.64 1018.15
1007.92 1008.08 1009.04 1009.32 1008.64 1007.40 1005.93 1003.27 1001.24 1001.05 1000.95 1000.56 1000.66 999.98 999.01 998.02 996.65 995.49 996.80 997.43 996.67 996.22 997.20 998.16 999.39 1000.48 1001.41 1003.13 1004.81 1005.99 1007.55 1008.50 1009.56 1010.58 1012.02 1012.90 1013.97 1014.79 1015.19 1015.40 1015.53 1016.25 1017.03 1017.30 1017.18 1017.32 1017.68 1018.15 1018.36
Thickness
5773 5777 5777 5772 5740 5731 5744 5772 5805 5810 5818 5848 5842 5823 5822 5842 5826 5801 5864 5859 5862 5851 5839 5837 5842 5842 5844 5841 5837 5837 5834 5837 5834 5833 5831 5829 5826 5824 5822 5821 5819 5817 5815 5813 5812 5810 5808 5807 5805
5767 5771 5764 5748 5720 5711 5745 5787 5796 5815 5843 5838 5840 5837 5830 5831 5866 5864 5861 5862 5863 5850 5846 5843 5845 5843 5844 5842 5837 5834 5831 5835 5833 5832 5831 5829 5825 5822 5820 5818 5817 5816 5814 5812 5810 5808 5807 5805 5804
5761 5763 5742 5725 5709 5709 5740 5792 5804 5826 5838 5830 5825 5839 5834 5841 5865 5871 5884 5871 5862 5854 5852 5846 5843 5844 5843 5841 5836 5830 5829 5832 5831 5830 5829 5828 5825 5821 5820 5817 5816 5814 5812 5810 5808 5807 5806 5805 5804
5750 5744 5737 5717 5718 5737 5758 5791 5801 5807 5832 5831 5823 5815 5838 5866 5871 5876 5875 5868 5862 5858 5852 5844 5841 5843 5843 5840 5837 5830 5830 5830 5828 5826 5826 5826 5825 5821 5819 5816 5814 5813 5809 5809 5808 5807 5806 5806 5804
5739 5726 5709 5710 5724 5745 5762 5779 5783 5790 5811 5818 5816 5811 5814 5849 5871 5868 5866 5868 5858 5853 5847 5841 5839 5842 5841 5840 5836 5831 5830 5829 5826 5825 5824 5824 5823 5820 5817 5815 5814 5812 5810 5807 5808 5807 5807 5805 5802
5715 5713 5694 5702 5726 5748 5754 5773 5772 5779 5800 5806 5806 5812 5814 5838 5851 5853 5856 5858 5856 5854 5848 5841 5838 5836 5839 5839 5836 5831 5830 5826 5824 5822 5822 5821 5820 5818 5815 5813 5812 5811 5810 5807 5807 5806 5806 5804 5801
5703 5690 5689 5706 5717 5731 5748 5768 5764 5770 5783 5788 5806 5801 5811 5825 5835 5848 5848 5849 5848 5845 5843 5840 5837 5832 5836 5837 5836 5831 5828 5824 5822 5819 5820 5818 5817 5816 5815 5812 5811 5810 5808 5807 5806 5804 5804 5802 5799
5698 5686 5692 5699 5706 5713 5745 5753 5759 5764 5773 5795 5802 5780 5789 5826 5831 5834 5839 5836 5839 5836 5837 5837 5834 5833 5834 5833 5832 5829 5825 5822 5820 5818 5819 5817 5815 5814 5813 5812 5811 5809 5807 5805 5803 5802 5801 5799 5797
5695 5663 5662 5684 5698 5709 5731 5730 5752 5765 5769 5772 5787 5788 5808 5827 5823 5819 5822 5823 5827 5827 5829 5832 5831 5833 5830 5829 5830 5826 5822 5821 5819 5817 5816 5815 5813 5812 5812 5811 5809 5808 5805 5803 5801 5800 5799 5797 5795
5662 5643 5658 5683 5690 5691 5715 5716 5733 5738 5754 5760 5772 5788 5795 5785 5808 5810 5812 5813 5818 5823 5824 5827 5826 5827 5827 5827 5827 5827 5821 5818 5819 5818 5814 5813 5812 5809 5809 5809 5806 5805 5803 5801 5799 5797 5795 5795 5792
5653 5637 5662 5672 5681 5688 5698 5709 5725 5725 5732 5747 5751 5761 5775 5775 5778 5799 5805 5819 5822 5825 5822 5822 5825 5823 5824 5824 5824 5825 5823 5820 5820 5819 5815 5813 5810 5807 5807 5805 5803 5803 5801 5799 5796 5794 5794 5792 5789
5634 5644 5648 5656 5667 5667 5673 5693 5711 5717 5729 5746 5751 5755 5762 5768 5759 5758 5796 5808 5811 5820 5821 5821 5821 5821 5819 5817 5815 5822 5820 5820 5819 5820 5814 5812 5810 5805 5804 5802 5801 5800 5799 5798 5795 5790 5788 5787 5781
5621 5626 5632 5641 5646 5650 5664 5671 5689 5705 5724 5738 5744 5744 5751 5758 5760 5760 5758 5800 5813 5811 5818 5816 5822 5819 5815 5815 5814 5817 5819 5818 5819 5817 5816 5811 5810 5806 5802 5801 5800 5798 5797 5794 5792 5786 5784 5780 5774
5606 5611 5621 5627 5632 5638 5643 5657 5673 5718 5716 5722 5732 5731 5740 5750 5758 5759 5751 5771 5793 5809 5818 5812 5812 5816 5812 5809 5810 5815 5816 5819 5816 5815 5815 5813 5809 5805 5800 5799 5797 5795 5794 5792 5787 5783 5779 5774 5771
5599 5594 5605 5621 5621 5623 5633 5634 5652 5689 5705 5709 5718 5726 5729 5743 5749 5756 5754 5771 5783 5783 5797 5799 5793 5794 5805 5807 5805 5808 5808 5811 5808 5810 5808 5809 5807 5804 5799 5795 5792 5793 5790 5786 5782 5777 5774 5768 5763
5583 5586 5580 5608 5609 5619 5614 5598 5642 5666 5674 5693 5705 5720 5728 5735 5744 5752 5753 5752 5769 5781 5779 5787 5793 5782 5787 5798 5807 5810 5807 5806 5803 5807 5805 5802 5799 5798 5796 5791 5788 5785 5784 5781 5775 5769 5762 5757 5753
5568 5560 5573 5586 5604 5603 5596 5597 5631 5646 5653 5678 5689 5701 5717 5728 5740 5750 5752 5750 5755 5768 5777 5779 5786 5785 5769 5777 5793 5805 5804 5801 5800 5799 5800 5797 5793 5793 5789 5783 5778 5778 5775 5771 5768 5761 5757 5748 5745
5554 5559 5570 5571 5595 5589 5591 5597 5618 5633 5640 5654 5670 5685 5703 5716 5731 5745 5750 5749 5745 5756 5770 5779 5779 5801 5759 5753 5766 5780 5788 5793 5794 5795 5792 5790 5789 5786 5781 5777 5772 5769 5766 5763 5760 5755 5750 5743 5737
5571 5564 5565 5578 5586 5581 5586 5590 5609 5623 5626 5635 5658 5668 5682 5700 5730 5736 5748 5740 5741 5748 5757 5764 5774 5773 5763 5754 5765 5770 5779 5786 5791 5789 5787 5784 5782 5779 5772 5771 5763 5757 5756 5753 5751 5746 5740 5734 5731
5568 5566 5566 5577 5585 5583 5585 5589 5609 5615 5615 5628 5643 5661 5666 5690 5710 5724 5737 5727 5733 5740 5753 5749 5756 5756 5770 5761 5762 5758 5769 5780 5785 5780 5777 5776 5776 5775 5765 5763 5755 5751 5748 5744 5741 5738 5731 5725 5720
5572 5563 5563 5564 5583 5585 5575 5585 5594 5614 5615 5623 5630 5650 5662 5677 5697 5710 5724 5726 5725 5728 5741 5750 5756 5753 5761 5765 5758 5758 5764 5770 5769 5769 5768 5770 5768 5767 5761 5754 5750 5744 5742 5734 5731 5729 5722 5713 5710
5563 5577 5573 5572 5562 5550 5575 5559 5595 5602 5605 5614 5626 5634 5648 5666 5685 5703 5714 5724 5718 5728 5735 5744 5757 5758 5763 5762 5761 5757 5754 5763 5763 5756 5751 5754 5757 5755 5750 5748 5743 5736 5732 5726 5722 5718 5713 5707 5697
5572 5578 5573 5571 5561 5553 5558 5550 5608 5597 5599 5609 5616 5627 5641 5656 5672 5691 5704 5721 5722 5727 5734 5740 5752 5754 5753 5752 5760 5757 5754 5757 5748 5739 5739 5737 5741 5743 5744 5740 5733 5730 5724 5718 5712 5707 5704 5698 5692
5585 5572 5564 5562 5551 5543 5566 5555 5595 5587 5599 5611 5616 5622 5633 5645 5661 5678 5700 5714 5722 5727 5730 5733 5744 5751 5753 5743 5745 5750 5745 5739 5735 5733 5732 5720 5723 5733 5732 5729 5725 5726 5716 5706 5703 5698 5695 5691 5685
5568 5546 5536 5524 5520 5552 5576 5561 5586 5602 5608 5609 5615 5621 5626 5637 5651 5660 5686 5700 5716 5716 5727 5729 5741 5743 5744 5742 5742 5742 5743 5732 5732 5736 5730 5716 5713 5714 5717 5720 5714 5715 5707 5699 5695 5689 5689 5684 5679
5546 5536 5531 5538 5531 5542 5563 5552 5579 5602 5609 5613 5619 5619 5623 5631 5634 5647 5671 5690 5708 5713 5722 5731 5740 5742 5737 5736 5740 5741 5741 5738 5742 5735 5715 5702 5701 5705 5712 5713 5708 5708 5700 5690 5686 5681 5680 5676 5671
5535 5522 5531 5526 5533 5536 5548 5571 5591 5603 5601 5603 5606 5608 5613 5627 5633 5639 5658 5686 5697 5707 5722 5735 5736 5737 5739 5739 5736 5732 5730 5726 5728 5727 5726 5708 5700 5691 5704 5701 5702 5699 5691 5682 5676 5676 5672 5667 5662
5542 5544 5521 5523 5527 5529 5550 5561 5567 5585 5588 5588 5593 5594 5600 5616 5627 5634 5648 5669 5696 5713 5725 5737 5738 5733 5730 5730 5734 5730 5723 5723 5714 5721 5720 5715 5687 5693 5697 5694 5696 5689 5682 5673 5670 5666 5663 5662 5648
5532 5524 5524 5518 5518 5520 5532 5544 5579 5580 5581 5574 5580 5590 5597 5604 5616 5627 5643 5663 5684 5710 5718 5731 5731 5726 5724 5725 5719 5716 5707 5712 5719 5712 5708 5700 5687 5686 5691 5689 5686 5680 5674 5667 5661 5660 5657 5647 5639
5538 5530 5515 5510 5508 5526 5530 5540 5580 5575 5574 5574 5569 5578 5588 5593 5615 5635 5634 5646 5676 5702 5713 5720 5722 5723 5727 5723 5713 5709 5702 5704 5703 5697 5692 5689 5683 5681 5680 5681 5680 5673 5665 5661 5659 5654 5645 5637 5633